FALCON 9 DEB (53580 NORAD) Tracking and Keplerian Element Data

This shows tracking and keplerian element data for the satellite.

Feedback or suggestion? Click here.




ElementValue
Catalog53580
NameFALCON 9 DEB
Epoch Orbit257
Epoch Day247.76044898
Epoch Year2022
RAAN73.2882
Inclination53.2173
Eccentricity0.0039352
Argument of Perigee100.3984
Mean Anonmoly260.1493
Mean Motion16.15397445
Decay Rate0.01578544
L11 53580U 22101BF 22247.76044898 .01578544 11700-4 97085-3 0 9999
L22 53580 53.2173 73.2882 0039352 100.3984 260.1493 16.15397445 2575



Live tracking and technical data element details for FALCON 9 DEB (NORAD 53580). FALCON 9 DEB can be tracked NOW for your location showing map with azimuth and elevation plus other details from your city location.







IsCatalogInMostPopularTable: catalog: 53580, numindb: 6
Update: records affected: 1



GetName: 53580 FALCON 9 DEB

Hit Count: updated at: Thu, 08 Dec 2022 20:06:27 GMT